Date String (YYYY-MM-DD hh:mm:ss) UTC,Instrument flags,absolute air pressure of the measurement (hPa),sample flow rate (lpm),inlet stack bypass flow (lpm),air temperature of the measurement (°C),ambient temperature measured by the external sensor (°C),aerosol sample conditioner tube jacket temperature (°C),OPC LED temperature (°C),internal box temperature (°C),relative humidity of the measurement (%),span deviation,mass concentration of particles derived from Lorenz-Mie calculation of OPC scattering (μg/m³),mass concentration of particles derived from Lorenz-Mie calculation of OPC scattering (μg/m³),mass concentration of particles derived from Lorenz-Mie calculation of OPC scattering (μg/m³)
DateTimeUTC,F1_M11,P_M11,Q1_M11,Q2_M11,T1_M11,T2_M11,T3_M11,T4_M11,T5_M11,U1_M11,ZSPAN_M11,X0_M11,X2_M11,X1_M11
2023-07-06 11:00:00,SystemResetWarning,0835.1,5.00,000.00,030.2,028.8,000.0,038.7,031.7,33.7,-002.1,0013.88,0009.35,0009.03
2023-07-06 11:01:00,SystemResetWarning,0835.1,5.00,000.00,030.2,028.9,000.0,038.7,031.7,33.7,-002.2,0013.66,0009.21,0008.90
2023-07-06 11:02:00,SystemResetWarning,0835.1,5.00,000.00,030.2,028.9,000.0,038.7,031.7,33.7,-002.3,0013.44,0009.03,0008.72
2023-07-06 11:03:00,SystemResetWarning,0835.1,5.00,000.00,030.2,028.9,000.0,038.7,031.7,33.7,-002.6,0013.17,0008.90,0008.57
2023-07-06 11:04:00,SystemResetWarning,0835.1,5.00,000.00,030.2,028.9,000.0,038.7,031.7,33.6,-002.4,0012.94,0008.78,0008.46
2023-07-06 11:05:00,SystemResetWarning,0835.2,5.00,000.00,030.2,028.9,000.0,038.7,031.8,33.5,-002.6,0012.82,0008.70,0008.38
2023-07-06 11:06:00,SystemResetWarning,0835.3,5.00,000.00,030.3,028.9,000.0,038.8,031.8,33.5,-002.7,0012.79,0008.63,0008.29
2023-07-06 11:07:00,SystemResetWarning,0835.2,5.00,000.00,030.3,028.9,000.0,038.8,031.8,33.4,-002.7,0012.81,0008.61,0008.25
2023-07-06 11:08:00,SystemResetWarning,0835.2,5.00,000.00,030.3,029.0,000.0,038.8,031.8,33.3,-002.7,0012.72,0008.52,0008.18
2023-07-06 11:09:00,SystemResetWarning,0835.3,5.00,000.00,030.3,029.0,000.0,038.8,031.8,33.2,-002.8,0012.06,0008.43,0008.09
2023-07-06 11:10:00,SystemResetWarning,0835.3,5.00,000.00,030.3,029.0,000.0,038.8,031.8,33.1,-002.6,0012.08,0008.34,0008.00
2023-07-06 11:11:00,SystemResetWarning,0835.2,5.00,000.00,030.3,029.0,000.0,038.8,031.8,33.1,-002.4,0011.86,0008.19,0007.88
2023-07-06 11:12:00,SystemResetWarning,0835.1,5.00,000.00,030.3,029.0,000.0,038.8,031.8,33.0,-002.2,0011.79,0008.12,0007.78
2023-07-06 11:13:00,SystemResetWarning,0835.1,5.00,000.00,030.4,029.0,000.0,038.8,031.8,33.0,-002.2,0012.00,0008.01,0007.66
2023-07-06 11:14:00,SystemResetWarning,0835.0,5.00,000.00,030.4,029.0,000.0,038.8,031.8,32.9,-001.7,0012.34,0007.93,0007.55
2023-07-06 11:15:00,SystemResetWarning,0834.9,5.00,000.00,030.4,029.0,000.0,038.8,031.9,32.9,-001.7,0012.20,0007.81,0007.43
2023-07-06 11:16:00,SystemResetWarning,0834.7,5.00,000.00,030.4,029.0,000.0,038.9,031.8,32.9,-001.7,0012.17,0007.72,0007.31
2023-07-06 11:17:00,SystemResetWarning,0834.7,5.01,000.00,030.4,029.0,000.0,038.9,031.9,32.9,-001.8,0012.00,0007.61,0007.20
2023-07-06 11:18:00,SystemResetWarning,0834.4,5.00,000.00,030.3,029.0,000.0,038.9,031.8,33.0,-001.8,0011.95,0007.53,0007.10
2023-07-06 11:19:00,SystemResetWarning,0834.3,5.00,000.00,030.3,029.0,000.0,038.9,031.8,33.0,-001.8,0012.16,0007.46,0007.01
2023-07-06 11:20:00,SystemResetWarning,0834.3,5.00,000.00,030.4,029.0,000.0,038.9,031.9,33.0,-001.5,0012.04,0007.38,0006.91
2023-07-06 11:21:00,SystemResetWarning,0834.5,5.00,000.00,030.4,029.0,000.0,038.9,031.9,33.1,-001.7,0011.90,0007.35,0006.85
2023-07-06 11:22:00,SystemResetWarning,0834.8,5.00,000.00,030.4,029.0,000.0,038.9,031.9,33.1,-002.0,0012.00,0007.38,0006.82
2023-07-06 11:23:00,SystemResetWarning,0835.1,5.00,000.00,030.4,028.9,000.0,038.9,031.8,33.2,-002.2,0012.23,0007.41,0006.86
2023-07-06 11:24:00,SystemResetWarning,0834.7,5.01,000.00,030.4,029.0,000.0,038.9,031.9,33.2,-002.3,0012.26,0007.51,0006.96
2023-07-06 11:25:00,SystemResetWarning,0834.9,5.00,000.00,030.4,029.0,000.0,038.9,031.9,33.1,-002.5,0011.79,0007.54,0007.02
2023-07-06 11:26:00,SystemResetWarning,0834.9,5.00,000.00,030.4,029.0,000.0,038.9,031.9,33.1,-002.7,0011.90,0007.65,0007.13
2023-07-06 11:27:00,SystemResetWarning,0835.2,5.00,000.00,030.4,029.0,000.0,038.9,031.9,33.2,-002.5,0011.97,0007.74,0007.23
2023-07-06 11:28:00,SystemResetWarning,0835.1,5.00,000.00,030.4,029.0,000.0,038.9,031.9,33.2,-002.5,0012.21,0007.81,0007.32
2023-07-06 11:29:00,SystemResetWarning,0834.9,5.00,000.00,030.4,029.0,000.0,039.0,031.9,33.2,-002.3,0012.41,0007.89,0007.43
2023-07-06 11:30:00,SystemResetWarning,0834.7,5.00,000.00,030.4,029.0,000.0,039.0,031.9,33.3,-002.3,0012.29,0008.01,0007.53
2023-07-06 11:31:00,SystemResetWarning,0834.4,5.00,000.00,030.4,029.0,000.0,039.0,031.9,33.3,-002.5,0012.27,0008.08,0007.62
2023-07-06 11:32:00,SystemResetWarning,0834.4,5.00,000.00,030.4,029.0,000.0,039.0,031.9,33.3,-002.6,0012.30,0008.17,0007.73
2023-07-06 11:33:00,SystemResetWarning,0834.3,5.00,000.00,030.4,029.0,000.0,039.0,031.9,33.3,-002.6,0012.39,0008.24,0007.82
2023-07-06 11:34:00,SystemResetWarning,0834.3,5.00,000.00,030.4,029.0,000.0,039.0,031.9,33.3,-002.5,0012.37,0008.31,0007.88
2023-07-06 11:35:00,SystemResetWarning,0834.2,4.99,000.00,030.4,029.0,000.0,039.0,031.9,33.3,-002.4,0012.13,0008.36,0007.92
2023-07-06 11:36:00,SystemResetWarning,0834.0,5.01,000.00,030.4,029.0,000.0,039.0,031.9,33.3,-002.2,0012.25,0008.39,0007.92
2023-07-06 11:37:00,SystemResetWarning,0833.9,5.01,000.00,030.4,029.0,000.0,039.0,031.9,33.3,-002.2,0012.32,0008.41,0007.91
2023-07-06 11:38:00,SystemResetWarning,0833.8,5.00,000.00,030.4,029.0,000.0,039.0,031.9,33.4,-002.3,0012.34,0008.38,0007.88
2023-07-06 11:39:00,SystemResetWarning,0833.8,5.00,000.00,030.4,028.9,000.0,039.0,031.9,33.4,-002.0,0012.27,0008.38,0007.87
2023-07-06 11:40:00,SystemResetWarning,0833.7,4.99,000.00,030.4,028.9,000.0,039.0,031.9,33.4,-002.0,0012.15,0008.33,0007.83
2023-07-06 11:41:00,SystemResetWarning,0833.7,4.99,000.00,030.4,028.9,000.0,039.0,031.9,33.5,-001.9,0011.94,0008.19,0007.73
2023-07-06 11:42:00,SystemResetWarning,0833.5,4.99,000.00,030.4,028.8,000.0,039.0,031.9,33.5,-001.7,0011.87,0008.08,0007.63
2023-07-06 11:43:00,SystemResetWarning,0833.3,5.01,000.00,030.4,028.8,000.0,039.0,031.8,33.5,-001.8,0011.90,0007.99,0007.54
2023-07-06 11:44:00,SystemResetWarning,0833.1,5.00,000.00,030.4,028.8,000.0,039.0,031.8,33.5,-001.8,0011.92,0007.92,0007.49
2023-07-06 11:45:00,SystemResetWarning,0833.0,5.00,000.00,030.4,028.7,000.0,039.0,031.8,33.5,-002.0,0012.11,0007.90,0007.48
2023-07-06 11:46:00,SystemResetWarning,0833.0,5.01,000.00,030.4,028.7,000.0,039.0,031.8,33.5,-002.1,0012.09,0007.87,0007.46
2023-07-06 11:47:00,SystemResetWarning,0833.2,5.00,000.00,030.4,028.6,000.0,039.0,031.7,33.6,-002.2,0011.99,0007.83,0007.42
2023-07-06 11:48:00,SystemResetWarning,0833.4,5.00,000.00,030.3,028.6,000.0,039.0,031.7,33.5,-002.3,0011.82,0007.73,0007.35
2023-07-06 11:49:00,SystemResetWarning,0833.7,5.01,000.00,030.3,028.6,000.0,039.0,031.7,33.6,-002.3,0011.69,0007.64,0007.27
2023-07-06 11:50:00,SystemResetWarning,0833.8,5.00,000.00,030.3,028.6,000.0,038.9,031.7,33.8,-002.4,0011.47,0007.54,0007.18
2023-07-06 11:51:00,SystemResetWarning,0833.8,5.00,000.00,030.3,028.6,000.0,038.9,031.7,33.8,-002.6,0011.48,0007.56,0007.17
2023-07-06 11:52:00,SystemResetWarning,0833.8,5.00,000.00,030.3,028.6,000.0,038.9,031.7,33.8,-002.6,0011.65,0007.69,0007.28
2023-07-06 11:53:00,SystemResetWarning,0833.7,5.00,000.00,030.3,028.7,000.0,038.9,031.7,33.8,-002.7,0011.75,0007.84,0007.45
2023-07-06 11:54:00,SystemResetWarning,0833.7,4.99,000.00,030.3,028.7,000.0,038.9,031.7,33.8,-002.7,0011.82,0007.99,0007.58
2023-07-06 11:55:00,SystemResetWarning,0833.7,5.00,000.00,030.3,028.7,000.0,038.9,031.8,33.9,-002.5,0011.86,0008.11,0007.69
2023-07-06 11:56:00,SystemResetWarning,0833.5,5.00,000.00,030.3,028.7,000.0,038.9,031.7,33.7,-002.4,0011.70,0008.16,0007.76
2023-07-06 11:57:00,SystemResetWarning,0833.4,5.00,000.00,030.3,028.8,000.0,038.9,031.7,33.8,-002.5,0011.97,0008.22,0007.83
2023-07-06 11:58:00,SystemResetWarning,0833.4,5.00,000.00,030.3,028.8,000.0,038.9,031.8,33.7,-002.5,0012.04,0008.31,0007.93
2023-07-06 11:59:00,SystemResetWarning,0833.4,5.00,000.00,030.3,028.7,000.0,038.9,031.8,33.6,-002.5,0012.19,0008.45,0008.08
